Weather History for Minchumina, AK

Change the Weather History Date:

Thursday, October 18, 2012

  Actual Average Record
Temperature  
Mean Temperature 20 °F -  
Max Temperature 24 °F 23 °F 48 °F (2013)
Min Temperature 15 °F 14 °F 5 °F (1996)
Degree Days  
Heating Degree Days 46    
Moisture  
Dew Point 18 °F    
Average Humidity 88    
Maximum Humidity 100    
Minimum Humidity 74    
Precipitation  
Precipitation 0.00 in - - ()
Sea Level Pressure  
Sea Level Pressure 29.96 in    
Wind  
Wind Speed 0 mph (ENE)    
Max Wind Speed 4 mph    
Max Gust Speed -    
Visibility 9 miles    
Events      
Averages and records for this station are not official NWS values.
T = Trace of Precipitation, MM = Missing Value Source: NWS Daily Summary

Daily Weather History Graph

Daily Weather History Graph

Search for Another Location

Airport:

Trip Planner

Search our weather history database for the weather conditions in past years. The results will help you decide how hot, cold, wet, or windy it might be!

Date:

Astronomy

Oct. 18, 2012 Rise Set
Actual Time 9:09 AM AKDT 6:37 PM AKDT
Civil Twilight 8:20 AM AKDT 7:26 PM AKDT
Nautical Twilight 7:26 AM AKDT 8:20 PM AKDT
Astronomical Twilight 6:30 AM AKDT 9:15 PM AKDT
Moon 2:33 PM AKDT (10/18) 7:51 PM AKDT (10/18)
Length of Visible Light 11h 05m
Length of Day
9h 27m
Waxing Crescent, 15% of the Moon is Illuminated
Oct 18
Waxing Crescent
Oct 21
First Quarter
Oct 29
Full
Nov 6
Last Quarter
Nov 13
New

Hourly Weather History & Observations

Time (AKDT) Temp. Windchill Dew Point Humidity Pressure Visibility Wind Dir Wind Speed Gust Speed Precip Events Conditions
12:16 AM 21.2 °F - 19.4 °F 93% 29.87 in 10.0 mi Calm Calm - N/A   Overcast
12:36 AM 19.4 °F - 17.6 °F 93% 29.87 in 10.0 mi Calm Calm - N/A   Overcast
12:56 AM 19.4 °F - 17.6 °F 93% 29.87 in 10.0 mi Calm Calm - N/A   Overcast
1:16 AM 19.4 °F - 17.6 °F 93% 29.87 in 10.0 mi Calm Calm - N/A   Overcast
1:36 AM 19.4 °F - 17.6 °F 93% 29.88 in 10.0 mi Calm Calm - N/A   Overcast
1:56 AM 19.4 °F - 17.6 °F 93% 29.88 in 10.0 mi Calm Calm - N/A   Overcast
2:16 AM 17.6 °F - 12.2 °F 79% 29.88 in 10.0 mi Calm Calm - N/A   Overcast
2:36 AM 19.4 °F - 15.8 °F 86% 29.89 in 10.0 mi Calm Calm - N/A   Overcast
2:56 AM 19.4 °F - 17.6 °F 93% 29.89 in 10.0 mi Calm Calm - N/A   Overcast
3:16 AM 19.4 °F - 17.6 °F 93% 29.90 in 10.0 mi Calm Calm - N/A   Overcast
3:36 AM 17.6 °F - 15.8 °F 93% 29.90 in 10.0 mi Calm Calm - N/A   Mostly Cloudy
3:56 AM 19.4 °F - 17.6 °F 93% 29.90 in 10.0 mi Calm Calm - N/A   Overcast
4:16 AM 17.6 °F - 14.0 °F 86% 29.90 in 10.0 mi Calm Calm - N/A   Overcast
4:36 AM 19.4 °F - 15.8 °F 86% 29.90 in 10.0 mi Calm Calm - N/A   Overcast
4:56 AM 19.4 °F - 17.6 °F 93% 29.90 in 10.0 mi Calm Calm - N/A   Overcast
5:16 AM 17.6 °F - 15.8 °F 93% 29.91 in 10.0 mi Calm Calm - N/A   Overcast
5:36 AM 17.6 °F - 15.8 °F 93% 29.91 in 10.0 mi Calm Calm - N/A   Overcast
5:56 AM 17.6 °F - 15.8 °F 93% 29.91 in 10.0 mi Calm Calm - N/A   Overcast
6:16 AM 17.6 °F - 14.0 °F 86% 29.91 in 10.0 mi Calm Calm - N/A   Overcast
6:36 AM 17.6 °F - 15.8 °F 93% 29.92 in 10.0 mi Calm Calm - N/A   Overcast
6:56 AM 17.6 °F - 15.8 °F 93% 29.92 in 10.0 mi Calm Calm - N/A   Overcast
7:16 AM 15.8 °F - 15.8 °F 100% 29.92 in 10.0 mi Calm Calm - N/A   Overcast
7:36 AM 17.6 °F - 15.8 °F 93% 29.92 in 10.0 mi Calm Calm - N/A   Overcast
7:56 AM 17.6 °F - 15.8 °F 93% 29.93 in 10.0 mi Calm Calm - N/A   Overcast
8:16 AM 17.6 °F - 15.8 °F 93% 29.93 in 10.0 mi Calm Calm - N/A   Overcast
8:36 AM 17.6 °F - 15.8 °F 93% 29.93 in 10.0 mi Calm Calm - N/A   Overcast
8:56 AM 17.6 °F - 15.8 °F 93% 29.94 in 10.0 mi Calm Calm - N/A   Overcast
9:16 AM 17.6 °F - 15.8 °F 93% 29.94 in 10.0 mi Calm Calm - N/A   Overcast
9:36 AM 17.6 °F - 15.8 °F 93% 29.94 in 10.0 mi Calm Calm - N/A   Overcast
9:56 AM 17.6 °F - 15.8 °F 93% 29.95 in 10.0 mi Calm Calm - N/A   Overcast
10:16 AM 17.6 °F - 15.8 °F 93% 29.95 in 10.0 mi Calm Calm - N/A   Overcast
10:36 AM 17.6 °F - 15.8 °F 93% 29.95 in 10.0 mi Calm Calm - N/A   Overcast
10:56 AM 19.4 °F - 17.6 °F 93% 29.95 in 10.0 mi Calm Calm - N/A   Overcast
11:16 AM 19.4 °F - 17.6 °F 93% 29.96 in 5.0 mi Calm Calm - N/A   Overcast
11:36 AM 19.4 °F - 17.6 °F 93% 29.96 in 10.0 mi Calm Calm - N/A   Overcast
11:56 AM 21.2 °F - 19.4 °F 93% 29.97 in 10.0 mi Calm Calm - N/A   Overcast
12:16 PM 21.2 °F - 19.4 °F 93% 29.97 in 10.0 mi Calm Calm - N/A   Overcast
12:36 PM 23.0 °F - 21.2 °F 93% 29.97 in 1.5 mi Calm Calm - N/A   Overcast
12:56 PM 24.8 °F - 21.2 °F 86% 29.97 in 1.5 mi Calm Calm - N/A   Overcast
1:16 PM 24.8 °F - 21.2 °F 86% 29.97 in 1.0 mi Calm Calm - N/A   Overcast
1:36 PM 24.8 °F - 21.2 °F 86% 29.98 in 1.8 mi Calm Calm - N/A   Overcast
1:56 PM 24.8 °F - 21.2 °F 86% 29.98 in 10.0 mi Calm Calm - N/A   Mostly Cloudy
2:16 PM 24.8 °F - 21.2 °F 86% 29.98 in 5.0 mi Calm Calm - N/A   Overcast
2:36 PM 24.8 °F - 21.2 °F 86% 29.98 in 9.0 mi Calm Calm - N/A   Overcast
2:56 PM 24.8 °F - 21.2 °F 86% 29.98 in 10.0 mi Calm Calm - N/A   Overcast
3:16 PM 24.8 °F - 21.2 °F 86% 29.99 in 10.0 mi Calm Calm - N/A   Overcast
3:36 PM 24.8 °F - 21.2 °F 86% 29.99 in 10.0 mi Calm Calm - N/A   Overcast
3:56 PM 24.8 °F - 21.2 °F 86% 29.99 in 3.0 mi Calm Calm - N/A   Overcast
4:16 PM 24.8 °F - 21.2 °F 86% 29.99 in 5.0 mi Calm Calm - N/A   Overcast
4:36 PM 24.8 °F - 21.2 °F 86% 29.99 in 10.0 mi Calm Calm - N/A   Overcast
4:56 PM 24.8 °F - 21.2 °F 86% 30.00 in 10.0 mi Calm Calm - N/A   Overcast
5:36 PM 24.8 °F - 19.4 °F 80% 30.00 in 10.0 mi Calm Calm - N/A   Overcast
5:56 PM 24.8 °F - 21.2 °F 86% 30.01 in 10.0 mi Calm Calm - N/A   Overcast
6:16 PM 24.8 °F - 21.2 °F 86% 30.01 in 10.0 mi Calm Calm - N/A   Overcast
6:36 PM 24.8 °F - 21.2 °F 86% 30.01 in 10.0 mi Calm Calm - N/A   Overcast
6:56 PM 24.8 °F - 21.2 °F 86% 30.02 in 10.0 mi Calm Calm - N/A   Overcast
7:16 PM 24.8 °F - 21.2 °F 86% 30.02 in 10.0 mi Calm Calm - N/A   Overcast
7:36 PM 24.8 °F - 21.2 °F 86% 30.02 in 10.0 mi Calm Calm - N/A   Overcast
7:56 PM 24.8 °F - 19.4 °F 80% 30.02 in 10.0 mi Calm Calm - N/A   Overcast
8:16 PM 24.8 °F - 21.2 °F 86% 30.03 in 10.0 mi Calm Calm - N/A   Overcast
8:36 PM 24.8 °F 20.5 °F 21.2 °F 86% 30.03 in 10.0 mi ENE 3.5 mph - N/A   Overcast
8:56 PM 24.8 °F 20.5 °F 21.2 °F 86% 30.04 in 10.0 mi ENE 3.5 mph - N/A   Overcast
9:16 PM 24.8 °F 20.5 °F 19.4 °F 80% 30.04 in 10.0 mi ENE 3.5 mph - N/A   Overcast
9:36 PM 23.0 °F - 19.4 °F 86% 30.05 in 10.0 mi Calm Calm - N/A   Overcast
9:56 PM 24.8 °F - 19.4 °F 80% 30.06 in 10.0 mi Calm Calm - N/A   Overcast
10:16 PM 24.8 °F - 17.6 °F 74% 30.06 in 10.0 mi Calm Calm - N/A   Overcast
10:36 PM 23.0 °F - 17.6 °F 80% 30.06 in 10.0 mi Calm Calm - N/A   Overcast
10:56 PM 23.0 °F - 17.6 °F 80% 30.07 in 10.0 mi Calm Calm - N/A   Overcast
11:16 PM 23.0 °F - 15.8 °F 74% 30.07 in 10.0 mi Calm Calm - N/A   Overcast
11:36 PM 21.2 °F - 15.8 °F 80% 30.07 in 10.0 mi Calm Calm - N/A   Overcast
11:56 PM 21.2 °F - 15.8 °F 80% 30.07 in 10.0 mi Calm Calm - N/A   Overcast